Precipitable_Water
0.29 0.29 0.28 0.28 0.28 0.28 0.29 0.29 0.30 0.30 0.28 0.20 0.20 0.32 0.17 0.18 0.19 0.29 0.34 0.36 0.31 0.24 0.21 0.23 0.21 0.20 0.23 0.27 0.24 0.26 0.22 0.21 0.22 0.21 0.23 0.20 0.23 0.21 0.19 0.18 0.18 0.18 0.19 0.17 0.16 0.16 0.12 0.13 0.11 0.13 0.13 0.14 0.16 0.20 0.22 0.23 0.21 0.21 0.17 0.20 0.20 0.24 0.14 0.12 0.12 0.16 0.19 0.22 0.24 0.25 0.26 0.24 0.22 0.24 0.25 0.24 0.21 0.23 0.21 0.20 0.22 0.19 0.19 0.18 0.20 0.16 0.17
0.29 0.29 0.28 0.28 0.28 0.27 0.27 0.29 0.29 0.30 0.28 0.22 0.24 0.19 0.15 0.18 0.19 0.22 0.35 0.37 0.32 0.30 0.18 0.18 0.19 0.21 0.24 0.24 0.21 0.26 0.23 0.22 0.20 0.20 0.21 0.20 0.19 0.19 0.18 0.20 0.22 0.17 0.20 0.18 0.15 0.16 0.12 0.15 0.13 0.13 0.14 0.13 0.21 0.20 0.21 0.22 0.18 0.17 0.16 0.14 0.21 0.13 0.15 0.13 0.10 0.09 0.10 0.14 0.18 0.20 0.23 0.22 0.20 0.20 0.23 0.24 0.25 0.24 0.24 0.25 0.25 0.18 0.18 0.20 0.18 0.13 0.16
0.28 0.28 0.28 0.27 0.27 0.26 0.27 0.27 0.28 0.28 0.28 0.27 0.24 0.13 0.13 0.15 0.20 0.21 0.24 0.28 0.29 0.22 0.23 0.19 0.19 0.20 0.20 0.20 0.18 0.20 0.20 0.23 0.22 0.22 0.20 0.22 0.20 0.19 0.18 0.20 0.21 0.19 0.21 0.17 0.17 0.18 0.15 0.12 0.16 0.14 0.14 0.14 0.21 0.20 0.20 0.21 0.19 0.21 0.23 0.22 0.24 0.15 0.13 0.13 0.08 0.06 0.06 0.06 0.07 0.08 0.11 0.15 0.19 0.22 0.22 0.24 0.23 0.22 0.22 0.18 0.20 0.16 0.20 0.22 0.19 0.17 0.21
0.27 0.27 0.27 0.27 0.27 0.26 0.25 0.25 0.26 0.27 0.26 0.25 0.23 0.14 0.17 0.12 0.10 0.15 0.18 0.22 0.21 0.22 0.24 0.21 0.19 0.18 0.18 0.16 0.18 0.19 0.17 0.21 0.23 0.24 0.20 0.22 0.21 0.22 0.21 0.21 0.21 0.18 0.18 0.16 0.15 0.16 0.18 0.14 0.13 0.13 0.13 0.15 0.18 0.20 0.20 0.20 0.21 0.21 0.22 0.22 0.21 0.15 0.15 0.14 0.12 0.10 0.08 0.09 0.11 0.14 0.17 0.16 0.15 0.18 0.20 0.21 0.24 0.25 0.24 0.23 0.19 0.16 0.19 0.19 0.19 0.21 0.22
0.27 0.27 0.27 0.27 0.27 0.26 0.24 0.24 0.24 0.26 0.26 0.25 0.23 0.16 0.12 0.13 0.10 0.12 0.11 0.19 0.17 0.17 0.20 0.18 0.19 0.16 0.20 0.14 0.17 0.16 0.17 0.18 0.19 0.24 0.17 0.21 0.21 0.20 0.20 0.19 0.17 0.16 0.17 0.14 0.15 0.15 0.15 0.17 0.14 0.13 0.13 0.15 0.16 0.20 0.20 0.20 0.21 0.21 0.21 0.23 0.19 0.15 0.12 0.13 0.14 0.13 0.12 0.13 0.13 0.15 0.16 0.14 0.16 0.17 0.18 0.22 0.22 0.23 0.22 0.19 0.17 0.24 0.20 0.14 0.20 0.25 0.23
0.27 0.27 0.26 0.26 0.26 0.25 0.24 0.22 0.23 0.25 0.27 0.26 0.31 0.11 0.13 0.09 0.11 0.15 0.16 0.16 0.11 0.14 0.14 0.19 0.17 0.18 0.18 0.15 0.17 0.15 0.15 0.16 0.14 0.18 0.20 0.20 0.22 0.17 0.17 0.18 0.19 0.17 0.16 0.15 0.13 0.14 0.14 0.15 0.12 0.14 0.14 0.13 0.16 0.15 0.19 0.17 0.21 0.21 0.19 0.22 0.17 0.13 0.10 0.13 0.13 0.12 0.13 0.14 0.14 0.15 0.15 0.15 0.15 0.17 0.19 0.19 0.21 0.22 0.20 0.20 0.22 0.24 0.19 0.16 0.20 0.24 0.23
0.26 0.27 0.26 0.25 0.25 0.24 0.24 0.22 0.21 0.23 0.26 0.27 0.19 0.11 0.13 0.14 0.13 0.14 0.19 0.12 0.15 0.16 0.16 0.18 0.16 0.15 0.15 0.15 0.16 0.14 0.14 0.14 0.17 0.16 0.16 0.18 0.17 0.19 0.13 0.14 0.16 0.16 0.17 0.15 0.12 0.13 0.10 0.11 0.14 0.12 0.13 0.13 0.13 0.12 0.15 0.20 0.21 0.20 0.17 0.18 0.19 0.14 0.11 0.14 0.14 0.11 0.11 0.13 0.14 0.15 0.14 0.14 0.15 0.17 0.18 0.20 0.21 0.21 0.22 0.22 0.24 0.24 0.22 0.24 0.24 0.24 0.24
0.26 0.26 0.26 0.26 0.25 0.24 0.23 0.21 0.20 0.21 0.24 0.27 0.15 0.14 0.13 0.10 0.13 0.10 0.15 0.14 0.14 0.14 0.15 0.15 0.16 0.12 0.14 0.12 0.14 0.14 0.14 0.14 0.15 0.17 0.16 0.13 0.15 0.18 0.14 0.15 0.16 0.16 0.15 0.15 0.12 0.14 0.14 0.13 0.11 0.14 0.13 0.13 0.14 0.12 0.13 0.13 0.17 0.18 0.15 0.16 0.18 0.13 0.10 0.14 0.13 0.11 0.10 0.12 0.15 0.15 0.14 0.14 0.13 0.16 0.19 0.20 0.21 0.22 0.23 0.24 0.24 0.25 0.24 0.25 0.25 0.25 0.23
0.27 0.26 0.26 0.26 0.25 0.24 0.23 0.22 0.20 0.19 0.22 0.15 0.15 0.14 0.16 0.16 0.18 0.20 0.14 0.10 0.12 0.14 0.13 0.13 0.13 0.12 0.13 0.12 0.13 0.14 0.15 0.14 0.16 0.15 0.18 0.17 0.14 0.15 0.15 0.17 0.15 0.16 0.15 0.15 0.14 0.17 0.15 0.15 0.15 0.16 0.15 0.11 0.16 0.12 0.13 0.16 0.13 0.15 0.15 0.16 0.16 0.15 0.11 0.15 0.13 0.10 0.08 0.12 0.13 0.13 0.14 0.14 0.14 0.15 0.17 0.19 0.20 0.19 0.20 0.21 0.24 0.23 0.21 0.23 0.24 0.23 0.23
0.28 0.27 0.27 0.26 0.25 0.25 0.24 0.22 0.21 0.19 0.21 0.15 0.15 0.11 0.18 0.19 0.18 0.16 0.14 0.10 0.12 0.11 0.13 0.12 0.13 0.11 0.13 0.14 0.13 0.13 0.14 0.16 0.16 0.12 0.17 0.17 0.18 0.18 0.18 0.17 0.15 0.15 0.13 0.13 0.15 0.18 0.18 0.18 0.19 0.19 0.20 0.20 0.18 0.18 0.17 0.17 0.15 0.15 0.15 0.17 0.14 0.14 0.13 0.11 0.12 0.09 0.08 0.13 0.13 0.12 0.12 0.13 0.12 0.14 0.14 0.15 0.18 0.20 0.22 0.23 0.25 0.24 0.25 0.22 0.21 0.21 0.27
0.29 0.28 0.27 0.26 0.26 0.25 0.25 0.23 0.21 0.21 0.18 0.14 0.14 0.13 0.15 0.13 0.13 0.15 0.14 0.11 0.10 0.11 0.11 0.10 0.10 0.13 0.14 0.15 0.13 0.15 0.15 0.14 0.16 0.12 0.13 0.16 0.16 0.19 0.17 0.16 0.13 0.13 0.13 0.19 0.21 0.22 0.22 0.22 0.22 0.22 0.21 0.19 0.18 0.18 0.19 0.18 0.18 0.17 0.16 0.15 0.16 0.15 0.14 0.12 0.15 0.09 0.08 0.10 0.11 0.12 0.10 0.07 0.08 0.14 0.17 0.17 0.16 0.18 0.18 0.18 0.21 0.24 0.26 0.24 0.27 0.28 0.31
0.30 0.29 0.28 0.27 0.26 0.25 0.25 0.24 0.23 0.21 0.22 0.22 0.21 0.14 0.16 0.17 0.18 0.16 0.11 0.08 0.11 0.11 0.10 0.09 0.11 0.11 0.12 0.13 0.14 0.13 0.12 0.13 0.13 0.16 0.12 0.14 0.17 0.18 0.17 0.16 0.15 0.11 0.19 0.24 0.24 0.23 0.23 0.24 0.22 0.22 0.20 0.19 0.19 0.19 0.18 0.17 0.18 0.20 0.19 0.16 0.14 0.14 0.14 0.12 0.14 0.10 0.08 0.10 0.11 0.07 0.05 0.06 0.13 0.17 0.20 0.21 0.21 0.21 0.19 0.19 0.21 0.24 0.26 0.30 0.30 0.30 0.30
0.32 0.30 0.29 0.28 0.27 0.26 0.25 0.25 0.24 0.22 0.21 0.20 0.19 0.13 0.17 0.20 0.15 0.12 0.12 0.10 0.09 0.09 0.08 0.10 0.11 0.11 0.12 0.13 0.12 0.12 0.14 0.15 0.16 0.15 0.16 0.15 0.14 0.16 0.18 0.17 0.14 0.19 0.25 0.23 0.22 0.21 0.15 0.13 0.15 0.16 0.16 0.17 0.17 0.18 0.17 0.17 0.17 0.19 0.19 0.19 0.16 0.13 0.13 0.14 0.12 0.13 0.12 0.10 0.09 0.05 0.05 0.09 0.13 0.18 0.20 0.24 0.21 0.21 0.19 0.15 0.18 0.21 0.25 0.29 0.28 0.29 0.31
0.34 0.32 0.31 0.30 0.29 0.28 0.26 0.25 0.25 0.24 0.22 0.21 0.16 0.16 0.17 0.17 0.14 0.12 0.11 0.09 0.10 0.11 0.11 0.09 0.11 0.10 0.11 0.12 0.12 0.12 0.14 0.13 0.14 0.15 0.13 0.17 0.15 0.16 0.19 0.20 0.21 0.24 0.24 0.24 0.20 0.17 0.13 0.14 0.10 0.10 0.11 0.12 0.12 0.11 0.17 0.18 0.18 0.17 0.17 0.18 0.19 0.16 0.15 0.14 0.10 0.14 0.08 0.09 0.09 0.08 0.11 0.10 0.15 0.14 0.18 0.18 0.16 0.16 0.15 0.11 0.13 0.21 0.28 0.30 0.29 0.29 0.29
0.36 0.34 0.32 0.32 0.31 0.29 0.28 0.26 0.25 0.24 0.23 0.23 0.19 0.17 0.16 0.16 0.16 0.14 0.14 0.13 0.09 0.11 0.11 0.08 0.10 0.11 0.12 0.12 0.12 0.10 0.10 0.11 0.11 0.12 0.17 0.19 0.16 0.19 0.20 0.22 0.25 0.24 0.25 0.20 0.15 0.16 0.12 0.11 0.08 0.08 0.08 0.08 0.06 0.07 0.14 0.11 0.17 0.19 0.18 0.18 0.18 0.18 0.13 0.15 0.10 0.11 0.13 0.09 0.08 0.07 0.07 0.05 0.09 0.16 0.21 0.25 0.23 0.23 0.23 0.19 0.13 0.25 0.31 0.32 0.28 0.26 0.27
0.42 0.38 0.35 0.33 0.32 0.31 0.30 0.29 0.27 0.25 0.24 0.23 0.21 0.18 0.17 0.19 0.19 0.17 0.13 0.11 0.10 0.08 0.13 0.14 0.14 0.13 0.11 0.11 0.14 0.11 0.10 0.10 0.11 0.12 0.12 0.14 0.16 0.19 0.23 0.25 0.25 0.25 0.22 0.18 0.16 0.13 0.12 0.09 0.08 0.07 0.07 0.08 0.10 0.08 0.08 0.11 0.11 0.17 0.18 0.18 0.18 0.18 0.18 0.16 0.13 0.10 0.11 0.10 0.08 0.07 0.06 0.07 0.12 0.16 0.20 0.23 0.25 0.24 0.25 0.17 0.12 0.27 0.29 0.27 0.27 0.26 0.28
0.53 0.45 0.40 0.36 0.34 0.32 0.31 0.30 0.29 0.27 0.25 0.23 0.18 0.18 0.16 0.22 0.17 0.15 0.13 0.11 0.11 0.09 0.16 0.18 0.17 0.16 0.13 0.11 0.13 0.12 0.13 0.11 0.12 0.10 0.10 0.12 0.16 0.17 0.19 0.23 0.25 0.23 0.20 0.17 0.15 0.13 0.11 0.10 0.10 0.09 0.09 0.11 0.08 0.08 0.10 0.09 0.08 0.10 0.15 0.16 0.15 0.14 0.14 0.14 0.12 0.10 0.11 0.10 0.08 0.07 0.09 0.08 0.13 0.17 0.20 0.23 0.25 0.25 0.22 0.09 0.10 0.25 0.25 0.26 0.27 0.26 0.27
0.66 0.57 0.47 0.41 0.38 0.35 0.33 0.31 0.30 0.29 0.27 0.26 0.20 0.16 0.16 0.23 0.20 0.19 0.14 0.10 0.09 0.11 0.14 0.17 0.14 0.12 0.12 0.15 0.12 0.16 0.16 0.15 0.14 0.14 0.12 0.15 0.16 0.16 0.16 0.19 0.17 0.23 0.24 0.13 0.14 0.12 0.11 0.10 0.08 0.08 0.08 0.13 0.12 0.11 0.07 0.09 0.07 0.08 0.08 0.10 0.10 0.11 0.12 0.14 0.10 0.11 0.11 0.11 0.10 0.11 0.10 0.13 0.17 0.19 0.22 0.24 0.26 0.21 0.11 0.08 0.13 0.22 0.24 0.26 0.26 0.26 0.28
0.75 0.70 0.62 0.50 0.43 0.39 0.36 0.33 0.32 0.30 0.30 0.28 0.25 0.25 0.19 0.21 0.22 0.20 0.14 0.12 0.10 0.08 0.16 0.18 0.18 0.16 0.18 0.21 0.17 0.17 0.18 0.18 0.18 0.12 0.13 0.12 0.14 0.19 0.19 0.19 0.22 0.15 0.21 0.14 0.14 0.12 0.10 0.10 0.12 0.11 0.09 0.11 0.12 0.08 0.11 0.08 0.08 0.10 0.11 0.09 0.10 0.12 0.12 0.13 0.13 0.10 0.09 0.11 0.09 0.08 0.10 0.15 0.19 0.22 0.22 0.26 0.18 0.09 0.09 0.15 0.22 0.22 0.22 0.25 0.27 0.26 0.29
0.87 0.79 0.73 0.66 0.55 0.45 0.40 0.37 0.34 0.32 0.31 0.31 0.26 0.14 0.15 0.22 0.24 0.20 0.13 0.09 0.09 0.10 0.14 0.15 0.15 0.14 0.17 0.16 0.13 0.13 0.15 0.15 0.16 0.13 0.13 0.11 0.22 0.21 0.16 0.13 0.19 0.19 0.16 0.17 0.11 0.13 0.10 0.09 0.11 0.12 0.10 0.10 0.11 0.14 0.10 0.10 0.11 0.09 0.09 0.11 0.09 0.10 0.09 0.08 0.09 0.12 0.13 0.13 0.09 0.08 0.06 0.16 0.19 0.22 0.20 0.24 0.13 0.12 0.16 0.19 0.21 0.25 0.25 0.25 0.26 0.28 0.30
0.95 0.91 0.83 0.76 0.69 0.59 0.49 0.42 0.38 0.35 0.32 0.32 0.30 0.19 0.16 0.22 0.24 0.25 0.23 0.17 0.10 0.08 0.12 0.20 0.20 0.19 0.18 0.17 0.20 0.20 0.17 0.14 0.16 0.13 0.16 0.15 0.19 0.17 0.09 0.10 0.15 0.14 0.12 0.13 0.09 0.11 0.11 0.10 0.11 0.11 0.13 0.11 0.12 0.12 0.08 0.09 0.10 0.14 0.13 0.11 0.10 0.15 0.09 0.09 0.11 0.14 0.09 0.09 0.07 0.07 0.09 0.14 0.21 0.17 0.12 0.17 0.17 0.18 0.19 0.21 0.20 0.24 0.25 0.25 0.26 0.28 0.32
0.94 0.97 0.94 0.87 0.79 0.72 0.64 0.54 0.46 0.40 0.36 0.32 0.31 0.27 0.18 0.22 0.23 0.25 0.24 0.23 0.15 0.10 0.11 0.18 0.22 0.22 0.25 0.26 0.26 0.25 0.22 0.21 0.22 0.23 0.17 0.15 0.20 0.17 0.18 0.18 0.17 0.16 0.17 0.17 0.14 0.13 0.14 0.14 0.15 0.12 0.10 0.12 0.14 0.10 0.11 0.09 0.07 0.10 0.15 0.13 0.07 0.14 0.10 0.11 0.09 0.13 0.10 0.09 0.10 0.11 0.14 0.16 0.19 0.19 0.17 0.18 0.20 0.22 0.23 0.23 0.23 0.23 0.24 0.28 0.27 0.29 0.32
0.90 0.93 0.97 0.96 0.90 0.82 0.75 0.67 0.59 0.50 0.42 0.37 0.31 0.25 0.19 0.21 0.20 0.24 0.22 0.15 0.19 0.17 0.19 0.18 0.19 0.22 0.24 0.26 0.30 0.30 0.30 0.31 0.28 0.24 0.23 0.17 0.15 0.17 0.16 0.16 0.16 0.21 0.20 0.19 0.14 0.15 0.15 0.14 0.11 0.14 0.12 0.12 0.11 0.10 0.11 0.11 0.09 0.10 0.09 0.13 0.11 0.15 0.15 0.17 0.14 0.12 0.16 0.16 0.15 0.14 0.14 0.15 0.16 0.19 0.21 0.20 0.21 0.23 0.25 0.24 0.24 0.25 0.26 0.28 0.28 0.30 0.32
0.91 0.91 0.93 0.98 0.98 0.93 0.85 0.78 0.71 0.63 0.54 0.46 0.38 0.29 0.24 0.27 0.28 0.23 0.18 0.17 0.10 0.09 0.15 0.19 0.13 0.11 0.14 0.15 0.23 0.30 0.30 0.29 0.29 0.30 0.30 0.25 0.14 0.15 0.20 0.21 0.24 0.19 0.18 0.20 0.23 0.16 0.17 0.16 0.14 0.15 0.10 0.12 0.13 0.10 0.08 0.08 0.09 0.12 0.11 0.11 0.12 0.14 0.16 0.15 0.11 0.14 0.12 0.08 0.11 0.13 0.14 0.15 0.16 0.18 0.20 0.22 0.24 0.24 0.25 0.25 0.26 0.26 0.27 0.29 0.31 0.31 0.33
0.91 0.92 0.92 0.94 0.99 1.00 0.95 0.89 0.82 0.74 0.67 0.59 0.48 0.41 0.36 0.31 0.33 0.28 0.16 0.09 0.12 0.09 0.07 0.09 0.12 0.20 0.24 0.26 0.29 0.25 0.28 0.32 0.33 0.31 0.30 0.28 0.23 0.17 0.16 0.23 0.24 0.19 0.18 0.21 0.22 0.19 0.17 0.13 0.13 0.12 0.09 0.13 0.13 0.09 0.12 0.10 0.09 0.15 0.10 0.09 0.10 0.10 0.19 0.13 0.12 0.13 0.11 0.09 0.11 0.12 0.14 0.16 0.16 0.18 0.18 0.19 0.21 0.23 0.25 0.26 0.27 0.28 0.29 0.30 0.31 0.33 0.33
0.87 0.90 0.93 0.93 0.95 0.99 1.01 0.99 0.93 0.85 0.78 0.72 0.62 0.45 0.32 0.27 0.34 0.32 0.28 0.23 0.15 0.10 0.08 0.08 0.12 0.24 0.26 0.21 0.19 0.24 0.31 0.30 0.29 0.28 0.28 0.29 0.29 0.28 0.24 0.23 0.22 0.25 0.22 0.22 0.21 0.16 0.15 0.14 0.14 0.14 0.11 0.12 0.17 0.11 0.10 0.12 0.11 0.14 0.11 0.08 0.11 0.13 0.15 0.09 0.12 0.11 0.12 0.15 0.15 0.14 0.16 0.16 0.17 0.19 0.21 0.22 0.22 0.23 0.25 0.27 0.27 0.28 0.28 0.29 0.32 0.34 0.34
0.79 0.85 0.90 0.93 0.95 0.96 0.99 1.00 1.01 0.97 0.89 0.83 0.75 0.64 0.46 0.39 0.38 0.30 0.22 0.23 0.14 0.10 0.11 0.09 0.12 0.16 0.21 0.18 0.26 0.28 0.28 0.26 0.26 0.26 0.26 0.28 0.28 0.28 0.25 0.23 0.21 0.21 0.20 0.19 0.20 0.18 0.17 0.15 0.14 0.11 0.13 0.13 0.16 0.13 0.13 0.12 0.11 0.10 0.09 0.09 0.14 0.13 0.09 0.12 0.12 0.10 0.09 0.09 0.10 0.13 0.11 0.11 0.13 0.17 0.20 0.21 0.24 0.25 0.24 0.26 0.26 0.27 0.27 0.29 0.29 0.32 0.36
0.75 0.79 0.84 0.90 0.94 0.96 0.97 0.97 0.98 1.00 0.99 0.93 0.87 0.78 0.63 0.47 0.43 0.38 0.37 0.29 0.22 0.13 0.13 0.11 0.11 0.20 0.27 0.18 0.23 0.24 0.25 0.26 0.26 0.26 0.26 0.27 0.27 0.26 0.24 0.22 0.22 0.19 0.19 0.17 0.14 0.15 0.14 0.12 0.11 0.16 0.16 0.17 0.13 0.11 0.15 0.15 0.15 0.11 0.10 0.09 0.12 0.10 0.10 0.12 0.10 0.10 0.09 0.11 0.13 0.16 0.16 0.16 0.15 0.17 0.20 0.22 0.24 0.24 0.23 0.23 0.24 0.26 0.28 0.30 0.30 0.31 0.33
0.73 0.75 0.79 0.84 0.90 0.93 0.95 0.96 0.95 0.95 0.98 0.99 0.94 0.85 0.71 0.65 0.60 0.52 0.43 0.40 0.33 0.20 0.17 0.15 0.17 0.14 0.09 0.14 0.29 0.25 0.28 0.27 0.25 0.25 0.25 0.25 0.25 0.25 0.23 0.23 0.21 0.21 0.20 0.19 0.17 0.17 0.15 0.15 0.17 0.15 0.13 0.19 0.14 0.11 0.13 0.09 0.09 0.08 0.07 0.10 0.13 0.13 0.15 0.14 0.13 0.14 0.14 0.14 0.15 0.16 0.17 0.15 0.15 0.19 0.21 0.22 0.24 0.24 0.23 0.24 0.26 0.27 0.29 0.31 0.32 0.33 0.32
0.71 0.74 0.77 0.81 0.86 0.92 0.93 0.94 0.94 0.93 0.94 0.95 0.94 0.82 0.62 0.56 0.66 0.60 0.55 0.49 0.38 0.30 0.16 0.13 0.11 0.11 0.30 0.27 0.23 0.26 0.24 0.26 0.25 0.25 0.23 0.23 0.23 0.23 0.24 0.23 0.22 0.23 0.21 0.18 0.17 0.14 0.16 0.16 0.17 0.19 0.21 0.25 0.15 0.14 0.12 0.12 0.10 0.09 0.10 0.11 0.14 0.16 0.16 0.16 0.17 0.16 0.13 0.15 0.17 0.18 0.18 0.18 0.20 0.22 0.22 0.23 0.24 0.25 0.23 0.23 0.25 0.27 0.29 0.32 0.32 0.33 0.35
0.68 0.70 0.73 0.76 0.79 0.83 0.87 0.89 0.92 0.92 0.91 0.87 0.82 0.71 0.64 0.50 0.59 0.73 0.68 0.57 0.52 0.33 0.23 0.19 0.15 0.18 0.17 0.26 0.25 0.22 0.24 0.24 0.23 0.23 0.23 0.24 0.24 0.24 0.26 0.26 0.25 0.24 0.19 0.20 0.19 0.18 0.20 0.15 0.17 0.18 0.22 0.22 0.18 0.15 0.13 0.13 0.11 0.10 0.09 0.10 0.13 0.14 0.15 0.16 0.18 0.18 0.18 0.17 0.19 0.21 0.21 0.21 0.22 0.22 0.21 0.22 0.23 0.24 0.24 0.25 0.27 0.29 0.30 0.31 0.32 0.33 0.34
0.64 0.68 0.71 0.73 0.77 0.82 0.86 0.88 0.89 0.89 0.88 0.82 0.73 0.70 0.76 0.81 0.88 0.92 0.88 0.78 0.67 0.43 0.27 0.18 0.15 0.14 0.13 0.18 0.25 0.31 0.28 0.27 0.26 0.25 0.24 0.26 0.22 0.26 0.25 0.26 0.23 0.27 0.24 0.21 0.21 0.21 0.18 0.19 0.18 0.19 0.18 0.22 0.21 0.16 0.16 0.14 0.11 0.09 0.10 0.10 0.13 0.15 0.16 0.17 0.18 0.19 0.20 0.21 0.21 0.19 0.17 0.17 0.20 0.19 0.18 0.21 0.24 0.26 0.25 0.26 0.28 0.29 0.30 0.31 0.32 0.33 0.34
0.60 0.63 0.67 0.70 0.72 0.76 0.81 0.85 0.87 0.87 0.83 0.87 0.92 0.94 0.95 0.97 0.98 0.96 0.92 0.84 0.73 0.58 0.46 0.31 0.21 0.18 0.14 0.13 0.28 0.30 0.31 0.29 0.26 0.27 0.23 0.31 0.24 0.28 0.24 0.27 0.27 0.25 0.30 0.22 0.19 0.17 0.22 0.21 0.20 0.17 0.20 0.26 0.19 0.17 0.16 0.13 0.12 0.12 0.12 0.12 0.13 0.15 0.16 0.18 0.19 0.20 0.20 0.21 0.22 0.18 0.16 0.17 0.18 0.21 0.23 0.24 0.24 0.25 0.25 0.26 0.27 0.29 0.29 0.29 0.29 0.30 0.32
0.57 0.60 0.62 0.65 0.69 0.71 0.73 0.77 0.80 0.81 0.82 0.78 0.70 0.76 0.88 0.94 0.93 0.94 0.96 0.86 0.70 0.65 0.54 0.40 0.31 0.25 0.21 0.25 0.17 0.25 0.32 0.22 0.22 0.26 0.21 0.32 0.33 0.30 0.25 0.27 0.28 0.22 0.26 0.20 0.21 0.22 0.24 0.23 0.18 0.20 0.25 0.21 0.23 0.19 0.14 0.12 0.14 0.14 0.14 0.14 0.15 0.16 0.18 0.18 0.18 0.18 0.19 0.21 0.23 0.23 0.22 0.23 0.23 0.24 0.24 0.24 0.23 0.25 0.26 0.27 0.27 0.26 0.26 0.27 0.27 0.28 0.31
0.59 0.59 0.60 0.62 0.64 0.68 0.70 0.72 0.72 0.71 0.65 0.69 0.72 0.80 0.85 0.86 0.90 0.94 0.92 0.83 0.61 0.54 0.51 0.47 0.42 0.33 0.29 0.26 0.22 0.25 0.37 0.28 0.21 0.27 0.22 0.28 0.36 0.28 0.30 0.24 0.29 0.22 0.22 0.32 0.24 0.23 0.21 0.21 0.26 0.20 0.16 0.23 0.20 0.15 0.14 0.14 0.14 0.15 0.16 0.16 0.16 0.17 0.18 0.17 0.17 0.19 0.20 0.22 0.23 0.23 0.24 0.25 0.24 0.22 0.22 0.22 0.23 0.24 0.25 0.25 0.27 0.26 0.25 0.25 0.27 0.28 0.31
0.59 0.59 0.58 0.60 0.60 0.62 0.61 0.61 0.62 0.60 0.57 0.59 0.66 0.81 0.84 0.87 0.87 0.89 0.90 0.88 0.71 0.54 0.49 0.46 0.44 0.38 0.36 0.30 0.27 0.33 0.45 0.32 0.33 0.32 0.30 0.32 0.30 0.36 0.32 0.28 0.21 0.24 0.33 0.27 0.21 0.25 0.22 0.28 0.25 0.17 0.24 0.18 0.15 0.16 0.15 0.16 0.16 0.16 0.16 0.16 0.17 0.18 0.18 0.18 0.18 0.19 0.20 0.21 0.22 0.23 0.23 0.24 0.23 0.22 0.23 0.23 0.23 0.24 0.25 0.24 0.25 0.27 0.26 0.25 0.26 0.29 0.31
0.57 0.58 0.59 0.57 0.56 0.48 0.43 0.45 0.56 0.57 0.56 0.67 0.73 0.80 0.83 0.84 0.85 0.84 0.80 0.75 0.77 0.74 0.55 0.46 0.40 0.37 0.38 0.38 0.43 0.43 0.44 0.32 0.40 0.34 0.34 0.29 0.26 0.34 0.30 0.27 0.21 0.27 0.28 0.24 0.23 0.21 0.26 0.36 0.25 0.19 0.20 0.17 0.16 0.19 0.20 0.20 0.19 0.18 0.18 0.17 0.18 0.19 0.19 0.19 0.20 0.22 0.21 0.20 0.20 0.20 0.21 0.21 0.22 0.23 0.23 0.23 0.23 0.24 0.24 0.23 0.24 0.25 0.24 0.25 0.26 0.28 0.30
0.56 0.56 0.52 0.45 0.40 0.33 0.34 0.43 0.50 0.62 0.67 0.67 0.69 0.62 0.61 0.63 0.50 0.54 0.56 0.53 0.60 0.62 0.53 0.49 0.39 0.39 0.41 0.38 0.33 0.44 0.45 0.41 0.47 0.39 0.40 0.43 0.36 0.32 0.36 0.29 0.26 0.29 0.20 0.21 0.24 0.33 0.31 0.27 0.23 0.19 0.18 0.21 0.23 0.23 0.23 0.22 0.22 0.23 0.22 0.21 0.20 0.20 0.20 0.20 0.21 0.21 0.20 0.18 0.17 0.17 0.18 0.19 0.20 0.21 0.22 0.21 0.23 0.23 0.23 0.25 0.26 0.28 0.28 0.28 0.28 0.30 0.32
0.51 0.49 0.44 0.42 0.34 0.30 0.33 0.42 0.61 0.63 0.59 0.62 0.62 0.50 0.46 0.53 0.46 0.39 0.39 0.45 0.45 0.38 0.44 0.42 0.33 0.37 0.38 0.36 0.38 0.46 0.43 0.40 0.40 0.41 0.37 0.47 0.39 0.30 0.39 0.29 0.35 0.32 0.25 0.23 0.26 0.34 0.23 0.23 0.23 0.22 0.18 0.20 0.22 0.22 0.25 0.26 0.26 0.25 0.25 0.24 0.24 0.23 0.23 0.22 0.23 0.22 0.21 0.20 0.19 0.19 0.20 0.19 0.19 0.19 0.21 0.22 0.23 0.24 0.25 0.26 0.27 0.28 0.29 0.29 0.29 0.31 0.32
0.41 0.35 0.35 0.36 0.34 0.39 0.52 0.57 0.62 0.57 0.55 0.43 0.47 0.42 0.33 0.42 0.34 0.29 0.41 0.31 0.28 0.34 0.38 0.30 0.36 0.37 0.37 0.34 0.34 0.36 0.47 0.41 0.36 0.37 0.39 0.41 0.46 0.34 0.41 0.37 0.40 0.32 0.25 0.24 0.27 0.35 0.25 0.21 0.23 0.23 0.19 0.22 0.24 0.27 0.28 0.29 0.28 0.28 0.29 0.29 0.29 0.27 0.26 0.26 0.24 0.25 0.25 0.24 0.24 0.24 0.24 0.24 0.24 0.24 0.23 0.23 0.23 0.23 0.23 0.25 0.27 0.28 0.29 0.30 0.31 0.31 0.31
0.40 0.37 0.37 0.32 0.40 0.47 0.51 0.55 0.55 0.49 0.41 0.36 0.36 0.36 0.32 0.25 0.32 0.35 0.30 0.24 0.23 0.26 0.35 0.32 0.32 0.30 0.34 0.37 0.38 0.35 0.47 0.48 0.45 0.46 0.41 0.34 0.42 0.38 0.33 0.30 0.39 0.31 0.27 0.26 0.34 0.35 0.32 0.28 0.25 0.22 0.20 0.24 0.27 0.28 0.29 0.30 0.30 0.30 0.30 0.30 0.29 0.30 0.29 0.28 0.27 0.27 0.27 0.26 0.26 0.25 0.25 0.26 0.25 0.25 0.25 0.25 0.24 0.24 0.25 0.26 0.26 0.28 0.29 0.30 0.30 0.31 0.33
0.46 0.42 0.45 0.51 0.50 0.51 0.48 0.44 0.42 0.35 0.34 0.37 0.27 0.22 0.26 0.27 0.32 0.30 0.31 0.22 0.23 0.29 0.31 0.32 0.28 0.31 0.32 0.35 0.34 0.37 0.37 0.45 0.41 0.38 0.33 0.28 0.35 0.31 0.28 0.30 0.32 0.26 0.23 0.29 0.34 0.31 0.29 0.23 0.22 0.20 0.22 0.25 0.27 0.28 0.28 0.27 0.27 0.25 0.25 0.27 0.29 0.28 0.28 0.29 0.31 0.31 0.30 0.28 0.28 0.27 0.27 0.27 0.26 0.26 0.25 0.25 0.24 0.25 0.26 0.26 0.27 0.29 0.30 0.32 0.33 0.33 0.33
0.59 0.55 0.52 0.43 0.40 0.37 0.40 0.27 0.34 0.32 0.21 0.21 0.21 0.17 0.23 0.20 0.23 0.23 0.25 0.32 0.38 0.33 0.33 0.40 0.37 0.40 0.39 0.41 0.35 0.38 0.35 0.42 0.34 0.32 0.30 0.26 0.35 0.32 0.27 0.26 0.25 0.21 0.24 0.31 0.27 0.24 0.21 0.19 0.18 0.17 0.19 0.22 0.24 0.24 0.24 0.24 0.23 0.23 0.24 0.27 0.28 0.28 0.28 0.28 0.29 0.30 0.32 0.32 0.30 0.29 0.28 0.28 0.27 0.27 0.27 0.27 0.26 0.26 0.26 0.28 0.29 0.29 0.31 0.31 0.32 0.32 0.32
0.54 0.50 0.39 0.37 0.30 0.31 0.36 0.17 0.35 0.25 0.21 0.23 0.18 0.13 0.17 0.17 0.20 0.25 0.23 0.27 0.33 0.32 0.35 0.30 0.34 0.34 0.31 0.41 0.35 0.37 0.37 0.38 0.41 0.36 0.32 0.35 0.31 0.27 0.26 0.22 0.22 0.28 0.30 0.22 0.21 0.17 0.16 0.16 0.14 0.12 0.14 0.19 0.21 0.21 0.21 0.21 0.22 0.23 0.23 0.25 0.28 0.27 0.26 0.26 0.26 0.26 0.27 0.32 0.34 0.34 0.32 0.30 0.29 0.28 0.28 0.28 0.28 0.27 0.26 0.27 0.29 0.31 0.31 0.31 0.30 0.30 0.31
0.38 0.35 0.34 0.31 0.24 0.31 0.25 0.15 0.34 0.23 0.14 0.17 0.23 0.19 0.20 0.18 0.23 0.27 0.26 0.34 0.34 0.31 0.35 0.36 0.35 0.33 0.32 0.37 0.37 0.36 0.37 0.31 0.40 0.32 0.27 0.31 0.27 0.28 0.24 0.22 0.26 0.27 0.21 0.17 0.16 0.15 0.14 0.11 0.09 0.11 0.14 0.16 0.18 0.20 0.21 0.22 0.23 0.23 0.23 0.24 0.25 0.25 0.24 0.24 0.26 0.27 0.28 0.29 0.30 0.33 0.33 0.34 0.33 0.32 0.31 0.30 0.30 0.30 0.29 0.28 0.29 0.30 0.30 0.29 0.29 0.28 0.29
0.33 0.28 0.28 0.22 0.19 0.29 0.24 0.17 0.21 0.15 0.20 0.22 0.20 0.23 0.24 0.26 0.28 0.29 0.35 0.38 0.36 0.36 0.35 0.36 0.37 0.37 0.34 0.39 0.33 0.31 0.37 0.34 0.30 0.29 0.31 0.31 0.24 0.21 0.27 0.31 0.28 0.20 0.17 0.16 0.12 0.09 0.08 0.08 0.08 0.12 0.15 0.16 0.18 0.20 0.21 0.22 0.23 0.24 0.23 0.22 0.23 0.26 0.28 0.28 0.28 0.29 0.30 0.30 0.31 0.31 0.33 0.34 0.35 0.35 0.34 0.34 0.34 0.32 0.31 0.31 0.32 0.31 0.31 0.30 0.29 0.28 0.29
0.35 0.37 0.32 0.28 0.21 0.24 0.30 0.19 0.16 0.19 0.23 0.24 0.26 0.28 0.28 0.30 0.33 0.35 0.37 0.37 0.35 0.37 0.37 0.37 0.36 0.35 0.32 0.33 0.33 0.32 0.35 0.34 0.28 0.31 0.32 0.24 0.23 0.25 0.32 0.24 0.18 0.17 0.14 0.11 0.10 0.09 0.08 0.08 0.12 0.15 0.17 0.19 0.19 0.20 0.21 0.21 0.22 0.23 0.23 0.24 0.24 0.24 0.26 0.27 0.29 0.30 0.31 0.31 0.30 0.30 0.31 0.32 0.33 0.33 0.34 0.33 0.33 0.34 0.36 0.36 0.36 0.36 0.34 0.31 0.31 0.32 0.32
0.26 0.36 0.32 0.20 0.17 0.21 0.18 0.20 0.26 0.27 0.27 0.26 0.29 0.32 0.33 0.35 0.32 0.31 0.36 0.38 0.39 0.39 0.36 0.36 0.33 0.36 0.34 0.40 0.37 0.30 0.32 0.33 0.27 0.27 0.30 0.26 0.29 0.24 0.21 0.20 0.17 0.17 0.16 0.12 0.09 0.09 0.10 0.15 0.17 0.18 0.19 0.21 0.21 0.21 0.22 0.23 0.24 0.24 0.24 0.24 0.25 0.26 0.27 0.27 0.28 0.29 0.31 0.32 0.33 0.33 0.32 0.31 0.31 0.31 0.31 0.32 0.33 0.34 0.36 0.36 0.37 0.37 0.37 0.36 0.36 0.36 0.36
0.36 0.31 0.23 0.22 0.23 0.22 0.21 0.26 0.27 0.22 0.24 0.27 0.28 0.28 0.28 0.27 0.26 0.28 0.32 0.34 0.32 0.31 0.33 0.31 0.31 0.30 0.26 0.31 0.29 0.30 0.28 0.34 0.26 0.26 0.31 0.26 0.21 0.17 0.17 0.15 0.14 0.12 0.12 0.13 0.11 0.10 0.13 0.20 0.21 0.22 0.23 0.23 0.24 0.24 0.24 0.25 0.25 0.26 0.27 0.27 0.28 0.29 0.31 0.32 0.33 0.34 0.34 0.34 0.34 0.34 0.35 0.34 0.32 0.30 0.31 0.32 0.32 0.32 0.35 0.36 0.36 0.36 0.37 0.37 0.38 0.37 0.36
0.30 0.27 0.29 0.23 0.20 0.21 0.25 0.27 0.23 0.18 0.21 0.28 0.29 0.27 0.28 0.27 0.25 0.29 0.34 0.31 0.32 0.32 0.32 0.32 0.34 0.28 0.27 0.27 0.22 0.24 0.23 0.28 0.28 0.30 0.27 0.23 0.23 0.24 0.22 0.17 0.15 0.12 0.10 0.11 0.15 0.19 0.21 0.23 0.24 0.24 0.24 0.25 0.25 0.25 0.26 0.27 0.29 0.29 0.30 0.32 0.33 0.34 0.36 0.37 0.38 0.39 0.40 0.40 0.38 0.36 0.35 0.34 0.34 0.33 0.32 0.31 0.32 0.34 0.35 0.36 0.37 0.37 0.37 0.38 0.39 0.38 0.37
0.37 0.30 0.25 0.28 0.20 0.16 0.20 0.16 0.14 0.16 0.17 0.20 0.24 0.27 0.28 0.27 0.27 0.28 0.35 0.35 0.35 0.33 0.30 0.26 0.28 0.27 0.25 0.24 0.23 0.19 0.20 0.29 0.25 0.21 0.19 0.17 0.21 0.20 0.17 0.14 0.13 0.13 0.13 0.16 0.22 0.25 0.24 0.25 0.25 0.25 0.26 0.27 0.29 0.30 0.31 0.31 0.31 0.32 0.33 0.35 0.36 0.38 0.38 0.38 0.37 0.37 0.37 0.38 0.39 0.39 0.38 0.36 0.35 0.34 0.36 0.37 0.36 0.34 0.33 0.34 0.35 0.37 0.39 0.40 0.40 0.40 0.40
0.26 0.20 0.19 0.25 0.28 0.25 0.24 0.25 0.25 0.21 0.20 0.23 0.25 0.27 0.31 0.28 0.32 0.36 0.40 0.36 0.33 0.28 0.25 0.29 0.29 0.26 0.24 0.20 0.22 0.27 0.31 0.27 0.22 0.22 0.20 0.20 0.21 0.17 0.15 0.14 0.13 0.14 0.17 0.21 0.23 0.26 0.28 0.30 0.30 0.30 0.30 0.30 0.31 0.32 0.33 0.34 0.34 0.35 0.35 0.36 0.37 0.37 0.36 0.35 0.35 0.35 0.35 0.35 0.35 0.35 0.37 0.39 0.41 0.42 0.42 0.40 0.39 0.37 0.36 0.37 0.40 0.43 0.45 0.45 0.45 0.45 0.45
Wind_Speed
3 4 5 6 7 7 8 9 9 9 7 3 1 0 1 2 2 2 2 2 2 1 1 1 1 0 0 0 1 2 1 1 2 2 2 3 3 4 4 5 5 5 6 6 6 7 8 8 9 9 10 10 10 11 12 13 14 15 15 16 17 16 16 18 19 18 18 19 19 20 22 23 23 23 23 23 23 23 23 24 25 26 26 26 25 24 27
3 4 5 5 6 7 8 9 9 9 7 4 2 0 1 1 1 1 2 3 3 2 2 2 1 1 2 1 0 1 1 2 2 2 2 3 3 3 4 4 5 5 6 6 7 7 8 8 9 9 10 10 10 11 12 13 14 15 15 16 18 17 17 18 20 20 20 20 20 21 22 23 23 23 23 24 24 24 24 25 25 25 25 25 24 25 28
3 4 5 5 6 7 8 9 9 8 7 5 2 1 1 2 2 2 2 1 2 3 3 3 2 2 2 1 1 2 1 2 2 2 3 3 3 4 4 4 5 5 6 6 7 7 8 9 9 10 10 11 11 12 12 13 14 15 16 17 17 18 18 19 19 19 20 20 21 22 23 23 23 22 22 23 23 22 24 25 24 24 25 25 24 26 31
4 4 5 5 6 7 8 9 9 8 7 5 3 1 1 2 2 2 2 1 0 2 2 3 2 3 3 2 3 3 2 2 2 3 3 3 4 4 4 4 5 6 6 7 7 7 8 9 9 10 10 11 11 12 12 13 14 15 16 17 17 18 18 18 18 18 19 20 21 22 23 23 23 22 21 22 22 22 23 25 24 24 26 27 26 28 32
5 5 5 6 6 7 8 9 9 8 7 5 3 2 1 1 2 3 3 2 1 1 1 2 2 4 4 3 3 3 2 3 3 4 4 4 4 4 5 5 6 6 7 7 8 8 8 9 10 10 11 12 12 12 12 13 13 15 16 16 17 18 19 19 19 20 20 21 22 22 22 23 23 23 21 20 21 22 22 23 25 26 27 28 29 29 32
6 6 6 6 7 7 8 8 9 8 7 5 3 2 1 1 2 2 2 3 3 2 3 2 2 3 3 3 4 3 3 4 4 4 4 4 5 5 5 6 7 7 7 8 8 9 9 9 10 11 11 12 12 12 13 13 13 14 15 16 17 18 19 19 20 21 22 21 22 22 22 23 23 22 21 21 20 21 22 24 25 26 26 28 31 33 33
7 7 7 7 7 8 8 9 9 8 7 5 3 2 2 1 2 2 2 2 3 3 4 3 3 3 3 4 4 4 4 5 5 5 5 5 5 5 6 7 7 7 7 8 9 9 10 10 11 11 11 12 13 13 14 14 14 15 15 16 17 18 19 19 20 22 23 22 22 22 22 23 24 22 21 21 21 21 22 25 26 26 27 30 33 34 34
9 9 8 8 8 9 9 9 9 9 7 5 3 3 3 3 3 3 3 2 3 4 4 4 4 4 4 5 5 5 5 5 5 5 5 6 6 6 7 6 6 7 8 8 9 9 9 10 11 11 12 13 13 13 14 14 14 15 16 17 18 19 19 20 21 23 24 23 23 23 22 23 24 23 22 21 22 23 24 26 27 27 29 31 31 33 34
10 10 10 10 10 10 10 9 9 9 8 6 5 5 5 5 5 5 4 4 5 5 5 5 5 5 6 5 6 6 6 5 5 6 6 6 6 7 7 6 6 7 9 9 10 10 10 10 11 12 12 13 13 14 15 15 15 15 16 18 19 19 20 21 22 23 24 23 23 24 24 24 24 24 24 23 23 23 24 25 26 26 28 30 31 32 33
12 11 11 11 11 11 11 10 10 10 9 7 7 7 7 7 7 7 6 6 7 6 7 7 6 6 7 6 6 6 6 6 6 6 7 7 7 7 7 7 8 8 9 10 10 11 12 12 13 13 14 14 14 14 15 16 15 16 16 18 19 20 21 22 22 23 24 24 25 26 27 25 23 23 24 23 22 23 25 26 26 26 28 30 31 31 33
13 13 13 12 12 12 12 11 11 10 9 9 8 9 9 9 9 9 8 8 8 8 8 8 7 7 8 7 7 7 7 7 7 7 8 8 8 8 9 9 9 9 10 11 12 12 13 14 14 14 15 15 15 15 16 16 16 16 17 18 19 20 21 22 22 22 24 26 27 27 25 22 23 24 24 22 22 23 25 27 28 28 28 28 30 32 34
14 14 14 14 13 13 13 13 12 11 11 11 11 10 10 10 10 10 10 10 10 10 9 9 9 9 9 9 8 8 8 8 8 8 8 9 9 9 10 10 10 11 11 12 13 14 14 14 14 14 14 15 15 16 16 16 16 17 18 18 19 20 21 22 22 23 25 27 27 26 23 23 25 25 24 23 24 25 27 29 30 29 29 29 30 33 35
15 15 15 15 15 14 14 14 14 13 13 13 13 12 12 12 12 12 12 12 12 11 11 11 11 11 11 10 9 9 9 10 10 10 10 10 10 10 11 11 11 12 13 14 14 14 15 15 15 14 15 15 16 16 16 16 16 17 18 19 19 20 21 23 23 23 24 25 24 23 25 28 27 25 24 25 26 28 30 31 30 29 29 29 30 33 35
16 16 16 16 16 16 15 15 15 15 15 14 14 14 14 14 14 13 13 13 13 13 13 12 13 12 12 12 11 11 11 11 11 12 12 12 11 12 12 13 13 14 14 15 15 15 15 16 16 16 16 16 16 17 16 16 18 19 19 19 20 20 21 23 23 23 23 24 24 25 27 29 27 25 25 27 28 28 29 31 31 29 28 29 31 33 35
18 18 17 17 17 17 17 16 16 16 16 16 16 15 15 15 15 15 15 15 15 15 15 14 14 14 13 13 13 12 12 13 13 13 13 13 13 13 14 14 14 15 15 15 15 16 16 17 17 18 18 17 17 18 17 17 19 20 20 20 21 21 22 23 23 23 23 24 26 26 27 26 26 26 26 27 29 29 28 31 32 30 28 30 32 33 34
19 19 19 18 18 18 18 18 18 18 18 18 18 17 17 17 17 17 17 16 16 17 17 17 16 15 15 15 15 15 14 15 15 15 15 15 14 15 15 15 16 16 16 16 16 17 17 17 18 18 18 18 18 19 19 19 19 20 21 21 21 22 23 23 23 24 24 23 24 24 24 26 27 26 26 28 29 29 29 31 32 30 30 32 33 33 34
20 20 20 20 20 19 19 19 19 19 19 19 19 19 18 18 18 18 18 18 18 19 19 18 17 17 16 16 17 17 17 16 16 16 16 16 16 16 16 16 16 17 17 17 17 18 18 18 19 19 19 18 19 20 20 20 20 21 21 21 22 23 23 22 22 24 24 23 24 24 25 27 27 25 26 28 29 29 30 31 31 30 31 32 32 33 34
22 21 21 21 21 21 21 20 20 20 20 20 21 20 20 19 19 19 19 19 19 20 20 19 19 19 19 18 18 19 18 18 18 18 17 17 17 17 17 17 17 18 18 18 18 18 19 19 19 20 20 20 19 20 20 20 21 22 21 22 23 23 23 22 23 24 24 23 25 26 28 28 27 26 27 28 29 30 30 30 31 32 32 33 33 33 34
23 23 23 22 22 22 22 22 22 22 21 22 22 22 21 21 21 21 21 20 20 21 22 21 21 21 21 20 20 20 19 19 19 19 18 19 19 18 18 19 19 19 19 19 19 19 20 20 19 19 20 21 20 20 21 21 22 22 22 23 24 23 23 23 24 24 24 24 25 28 29 28 26 27 28 28 29 31 31 31 32 33 34 34 34 33 34
24 24 24 24 23 23 23 23 23 23 23 23 23 23 23 22 22 22 22 22 22 23 23 22 22 22 22 22 21 21 21 21 21 20 20 20 20 18 19 20 20 19 19 20 20 20 20 20 20 20 21 22 21 21 23 23 23 22 22 23 24 23 24 24 24 24 24 25 25 27 29 28 26 26 28 29 29 31 33 34 34 33 34 34 34 34 33
25 25 25 25 25 24 24 24 24 24 24 24 24 24 24 23 23 23 23 23 23 23 23 23 23 23 23 23 23 23 22 22 22 22 21 21 21 20 21 21 20 20 21 21 21 21 21 21 21 21 22 22 22 22 24 25 26 24 22 23 24 23 23 25 25 25 25 25 25 26 27 27 25 26 29 30 31 33 35 35 34 34 34 34 34 34 33
26 26 26 26 26 25 25 25 25 25 25 25 25 25 25 25 24 24 24 24 24 24 24 24 24 24 25 24 24 24 24 24 23 23 22 22 22 22 22 22 22 22 22 22 22 23 22 22 22 23 23 23 24 24 24 25 26 26 24 24 24 24 24 26 27 27 26 27 28 29 30 30 29 29 32 34 34 35 35 34 34 34 33 33 33 33 33
28 27 27 27 27 27 27 26 26 26 26 26 26 26 26 26 26 26 26 25 25 25 25 25 25 25 25 25 25 25 25 25 25 25 24 24 24 24 24 24 24 24 23 23 23 23 23 23 23 24 24 24 24 25 26 26 26 26 26 25 25 25 26 27 28 29 30 30 31 32 33 34 33 33 34 34 35 34 34 33 33 33 32 32 32 33 33
29 28 28 28 28 28 28 27 27 27 27 27 27 27 27 27 27 27 27 26 26 26 26 26 25 25 25 25 25 26 26 26 26 25 25 25 25 24 25 25 24 24 24 24 24 24 24 24 24 24 25 25 25 25 27 27 27 27 27 27 26 26 26 27 29 30 31 31 30 30 32 34 35 35 35 34 34 33 32 31 31 31 32 32 32 33 33
31 30 29 29 29 29 29 29 28 28 28 28 28 28 28 28 28 28 28 27 27 27 26 27 26 26 26 26 26 26 26 26 26 26 26 26 26 25 25 25 25 25 25 25 25 25 25 25 25 25 26 26 25 25 26 27 28 27 27 28 27 26 27 29 30 30 30 31 33 34 35 35 35 35 35 34 33 32 31 30 30 31 31 32 32 33 33
31 31 31 30 30 30 30 30 30 29 29 29 29 29 29 29 29 29 28 29 28 28 28 28 28 27 27 27 26 27 27 27 27 27 27 27 27 27 27 26 26 26 26 26 26 26 26 26 26 26 26 26 26 26 27 28 29 29 29 28 26 26 27 28 29 31 31 33 35 36 36 35 34 33 33 33 33 32 31 30 30 31 32 33 33 33 32
31 31 32 31 31 31 31 31 31 30 30 30 30 29 29 29 29 29 29 29 28 28 27 27 26 26 27 27 27 27 27 27 27 28 28 28 28 28 28 27 27 27 27 27 27 27 27 27 26 27 27 27 28 28 29 29 30 30 30 27 24 25 27 27 28 31 32 32 33 34 34 34 33 32 33 33 33 32 31 31 32 33 33 33 33 33 32
31 31 32 32 32 32 31 31 31 31 31 31 31 30 30 29 29 29 29 29 29 29 29 29 29 28 28 29 28 28 28 28 28 28 28 28 28 28 28 28 28 28 27 27 27 27 27 27 27 27 27 28 28 29 29 29 30 30 29 25 23 25 26 25 28 32 34 34 35 35 34 35 35 34 34 34 33 32 32 32 33 33 33 32 32 32 32
31 31 32 32 33 32 32 31 31 31 32 32 32 31 30 30 29 28 29 29 30 31 32 32 31 31 31 30 29 29 29 29 29 29 29 29 29 29 29 29 29 28 28 28 28 28 28 29 28 28 28 27 28 29 29 29 30 30 30 27 25 26 28 28 31 34 36 37 37 35 35 36 36 35 36 36 34 33 33 32 32 32 32 31 31 31 32
30 31 32 32 32 33 33 32 31 31 31 31 32 31 31 30 29 29 29 29 30 31 31 31 31 31 31 31 30 30 30 30 30 30 30 30 30 30 30 30 30 29 29 29 29 29 29 29 29 29 28 28 28 29 30 31 31 31 31 30 27 27 29 31 33 35 37 37 37 36 36 37 37 37 37 36 34 32 31 31 31 31 31 31 31 31 32
30 31 31 32 32 32 32 32 32 31 31 30 30 30 30 30 30 30 30 31 31 31 31 31 32 32 32 32 32 32 31 31 31 31 31 30 30 30 30 30 30 30 30 30 29 29 29 29 29 29 28 28 29 30 31 32 31 31 33 32 28 27 30 32 34 36 37 37 37 37 37 37 36 36 35 34 32 31 30 30 31 31 31 32 32 32 32
30 31 31 32 32 32 32 32 32 31 31 31 30 31 32 32 33 33 33 32 31 31 31 31 31 31 31 31 31 31 31 31 31 31 31 31 30 30 30 30 30 30 30 30 30 30 30 30 30 30 29 29 31 32 32 32 31 32 36 35 31 29 32 35 36 37 37 36 36 37 37 36 35 34 33 33 32 31 30 31 31 31 32 32 32 33 33
31 31 31 32 32 32 32 32 32 32 32 32 32 33 33 33 33 33 33 32 32 31 31 31 30 31 31 31 30 30 30 30 30 31 31 30 30 30 31 31 31 31 31 31 31 31 31 30 30 31 31 31 32 33 33 32 32 34 37 38 35 34 36 37 37 38 37 35 34 34 35 36 35 34 34 33 33 32 31 32 32 32 32 32 33 33 34
31 31 31 32 32 32 32 32 32 33 33 33 33 33 33 33 33 32 32 32 32 31 32 31 31 31 31 31 31 31 31 30 30 31 31 31 31 31 31 31 31 31 32 32 31 32 32 31 31 31 32 32 33 34 34 33 34 35 36 37 37 37 37 37 37 36 35 34 33 33 34 36 36 35 34 34 33 33 32 32 32 32 32 33 33 34 34
31 31 31 32 32 32 32 32 32 32 32 32 33 32 32 33 33 32 32 32 31 31 31 32 32 32 32 32 32 32 31 31 31 31 31 31 31 31 31 30 31 31 31 31 32 32 32 31 31 32 32 32 33 33 33 33 35 35 35 36 36 35 35 36 37 37 35 35 34 34 34 35 35 34 34 34 33 33 32 32 31 32 32 33 34 34 33
31 31 31 31 31 32 32 31 31 31 31 31 32 32 33 33 33 33 34 34 33 32 32 31 32 32 32 33 33 32 31 32 32 31 31 31 31 31 31 31 31 32 31 31 32 32 32 31 31 32 33 33 34 33 33 33 35 35 36 36 36 34 34 37 38 38 37 36 35 34 34 34 34 34 34 33 32 31 31 31 31 31 32 34 34 33 33
30 30 30 31 31 31 31 30 30 30 30 31 31 32 33 33 33 33 34 34 34 35 34 33 34 34 33 33 34 33 32 33 33 32 32 32 32 32 32 31 32 32 32 32 33 33 32 32 32 34 35 36 35 34 33 33 34 34 35 36 36 35 36 38 38 38 38 38 36 35 33 33 33 33 33 33 32 32 32 32 32 32 33 34 34 34 34
30 30 30 30 30 30 30 30 30 30 30 30 30 30 30 30 31 32 32 32 33 34 34 35 36 35 34 34 34 33 33 33 33 33 33 33 32 32 32 32 33 32 32 34 33 32 32 33 34 35 37 37 36 36 35 35 35 36 35 35 35 35 36 37 36 36 37 37 36 35 33 34 34 33 33 33 33 32 32 33 33 33 33 34 34 34 34
29 30 30 30 30 30 30 31 31 31 30 29 28 27 27 26 27 28 29 29 31 32 33 34 35 34 33 34 34 34 34 33 33 34 34 33 33 32 32 32 32 32 33 35 33 32 33 34 34 36 37 36 34 35 36 35 36 36 35 34 34 34 35 36 35 35 35 36 36 35 35 35 35 35 34 34 34 34 34 34 33 34 34 34 34 35 35
29 29 29 29 30 30 31 32 31 30 30 29 28 27 27 26 26 26 27 27 28 29 30 31 32 32 32 33 34 34 34 33 33 33 33 33 33 32 32 32 32 31 33 35 33 32 34 35 34 37 37 34 32 34 35 34 34 35 34 34 34 33 33 34 35 34 35 35 36 35 35 34 34 35 35 35 35 36 35 34 34 34 35 35 35 35 35
28 28 29 29 30 31 31 32 31 30 29 29 28 28 28 27 27 27 26 27 27 27 27 28 28 29 29 30 31 32 33 33 32 32 32 32 33 32 32 33 32 32 33 34 32 32 33 34 35 36 36 33 32 34 34 34 34 35 34 34 33 33 33 34 34 34 34 35 35 34 33 33 33 34 35 36 36 36 36 35 35 35 35 35 35 35 36
28 29 29 30 31 31 31 31 30 30 29 28 28 29 29 28 27 27 26 27 27 27 26 26 27 27 27 27 28 29 29 29 29 29 30 31 31 31 31 32 31 32 33 32 31 31 33 33 35 36 34 32 31 32 32 33 35 34 33 33 32 32 33 34 34 34 33 33 34 34 33 33 34 34 35 36 37 36 36 36 36 36 36 36 36 36 36
28 29 29 29 30 30 30 30 30 29 29 28 28 28 28 28 27 27 27 26 26 26 26 26 26 26 26 26 26 27 27 27 27 28 28 29 29 29 30 30 31 31 32 31 31 32 33 34 36 36 33 30 31 33 34 35 35 34 33 33 32 33 33 33 32 33 32 32 33 34 34 35 36 37 37 38 38 38 39 38 38 38 38 37 37 37 38
28 28 29 29 29 29 29 30 30 30 30 30 30 29 29 28 27 27 27 27 26 26 26 26 26 26 26 26 26 26 27 26 27 27 27 28 28 28 28 30 30 30 30 30 31 33 33 33 35 35 32 31 32 35 35 35 35 34 34 33 33 32 32 31 31 32 32 33 34 35 36 38 39 40 40 40 39 40 41 41 39 38 38 38 38 39 39
28 28 28 28 29 29 29 29 30 31 32 32 31 31 31 30 29 28 27 27 27 27 27 27 27 28 28 27 27 27 27 27 27 28 27 27 28 28 29 29 29 29 29 30 31 32 32 33 32 30 29 31 33 34 34 34 35 34 35 34 34 33 32 32 32 33 35 36 37 38 39 41 42 42 43 42 41 41 42 42 41 40 39 39 40 40 40
28 27 27 28 29 30 30 31 31 32 33 32 32 32 32 32 32 31 30 30 29 29 30 30 30 30 30 30 29 29 29 28 28 29 28 28 29 30 29 29 29 29 29 30 31 32 32 32 30 28 29 31 32 32 33 33 34 34 35 36 36 36 35 36 37 38 39 40 40 41 42 42 43 43 43 43 43 43 43 42 42 41 41 41 42 42 42
28 28 28 29 30 31 32 32 32 32 32 33 33 34 34 33 33 33 33 32 32 31 31 32 32 32 32 32 32 32 32 31 31 31 30 30 31 31 30 30 30 30 30 31 33 33 32 30 28 28 29 31 32 32 33 34 34 35 36 37 37 38 39 40 41 42 42 42 43 44 44 44 44 44 43 43 43 43 42 42 42 42 42 43 43 44 43
28 29 29 30 30 31 32 33 33 33 34 35 35 35 35 35 35 35 35 35 34 34 33 33 33 33 33 33 32 32 32 32 32 33 32 31 32 32 31 32 33 32 32 33 35 34 31 29 29 30 32 33 34 34 35 35 36 37 37 37 39 40 42 42 43 44 45 45 44 45 45 45 45 44 43 42 42 42 42 42 43 43 43 44 44 45 45
30 30 31 32 32 33 32 32 33 35 36 35 36 37 37 38 38 38 37 37 37 37 36 35 35 35 35 34 34 34 34 33 33 32 32 32 33 33 33 33 35 36 35 35 36 36 34 33 34 35 36 36 36 36 37 37 38 39 40 41 42 43 44 45 46 46 47 46 46 46 46 45 44 44 43 42 42 42 43 43 44 45 46 46 47 47 47
32 32 33 34 34 34 32 32 34 35 34 34 35 37 38 38 39 39 38 37 37 37 36 36 36 36 35 35 35 36 36 36 35 35 35 36 36 36 36 37 39 40 38 36 36 36 37 37 37 38 38 38 38 38 39 40 42 43 44 45 46 46 47 47 48 48 48 48 48 47 47 46 45 45 45 45 45 46 46 46 47 48 49 49 50 50 50
33 34 35 35 36 36 34 34 35 35 35 34 35 36 36 37 38 38 37 37 37 36 36 36 36 35 35 36 36 36 36 36 36 37 39 39 38 39 41 43 44 42 41 39 38 39 39 39 39 40 41 42 42 43 44 44 45 46 47 47 48 49 50 50 50 51 51 51 50 49 49 48 48 48 48 48 49 49 49 50 50 51 52 52 52 51 51
35 36 36 36 37 38 38 38 38 38 37 37 37 36 37 37 37 37 37 37 37 37 38 37 36 36 37 37 37 36 36 37 38 39 41 41 41 42 45 47 46 45 44 44 44 44 44 44 44 45 46 46 47 48 48 49 49 50 51 51 51 52 52 53 54 54 55 55 54 53 53 52 51 51 51 51 51 51 51 52 53 53 53 53 53 52 51
Wind_Direction
11 9 8 7 9 10 10 11 10 10 14 21 23 86 148 153 187 231 258 228 208 159 139 280 336 84 166 114 78 57 48 44 31 15 15 10 2 12 19 14 15 14 9 8 6 6 6 3 2 1 358 358 358 356 356 356 356 356 357 357 357 355 353 352 349 351 355 353 351 352 353 354 353 352 354 356 357 357 355 354 354 352 350 350 351 350 349
349 353 354 354 358 1 3 6 6 6 11 10 360 48 186 196 213 260 284 243 224 207 207 226 234 235 234 220 6 347 353 2 360 353 357 353 346 357 4 1 4 3 358 358 358 359 359 356 355 355 352 351 352 352 352 353 354 355 354 353 353 353 352 350 349 350 352 352 352 351 351 351 349 349 352 354 356 356 354 353 354 351 348 350 351 347 346
322 331 339 342 347 351 355 360 1 1 3 0 353 307 241 232 225 263 319 277 219 208 210 206 205 230 232 231 269 280 314 327 326 332 340 341 337 343 350 348 349 350 349 350 350 351 351 348 349 350 347 347 349 349 348 350 352 354 353 352 351 351 350 349 349 350 349 347 346 346 346 346 346 348 351 352 353 353 351 350 350 349 347 347 345 340 341
301 312 322 329 336 341 347 352 354 355 356 355 354 333 262 234 237 264 295 322 184 194 210 198 195 224 232 247 269 274 288 291 296 313 318 324 329 331 334 335 336 338 338 338 338 341 346 347 344 342 342 345 347 347 346 347 349 351 352 351 350 349 348 346 344 343 342 339 338 341 344 343 341 344 346 347 348 348 349 349 345 345 345 342 340 338 339
287 296 306 315 323 330 338 344 346 348 350 347 344 340 299 241 246 262 265 275 286 228 240 231 218 232 241 252 261 268 281 283 290 301 304 309 314 317 322 323 323 327 329 330 331 332 339 344 341 338 338 342 345 344 344 344 346 348 349 348 349 348 344 345 343 338 338 337 334 337 341 338 336 336 339 344 346 346 346 343 340 345 346 340 340 342 340
280 285 294 301 309 319 328 334 338 341 342 335 321 319 315 255 241 256 253 251 259 260 264 266 251 247 254 257 257 264 271 274 283 291 297 302 300 306 315 310 309 318 324 326 328 328 331 335 335 336 336 338 340 340 340 342 344 346 345 344 347 346 342 345 345 338 336 335 332 334 337 336 333 332 333 338 341 341 339 335 336 343 340 335 338 341 338
277 280 285 291 296 306 316 324 330 333 330 323 314 298 289 266 250 270 266 243 247 254 257 264 269 266 265 262 262 262 259 268 283 288 293 297 295 300 309 305 305 315 322 324 325 325 328 328 329 333 334 333 336 337 338 339 338 339 341 341 343 344 341 343 344 339 336 335 334 335 336 335 333 329 328 332 335 335 333 332 335 337 333 332 335 335 335
276 277 280 285 288 294 304 312 320 323 315 305 306 296 280 270 263 270 272 256 257 263 262 268 272 270 269 269 269 268 263 266 279 284 287 293 294 296 302 306 311 317 318 319 319 321 324 322 321 327 331 330 332 334 335 337 335 334 337 339 340 340 340 342 343 339 338 339 340 339 336 334 332 329 328 330 331 332 332 332 335 335 332 333 333 332 335
277 277 278 281 283 286 293 300 308 312 304 288 283 285 279 272 266 265 266 265 267 270 269 271 271 270 272 272 270 272 271 269 275 284 288 291 293 295 299 304 310 316 315 312 313 319 323 321 319 323 326 327 329 330 333 336 335 333 335 337 337 338 337 339 342 339 337 340 341 338 334 333 331 329 329 329 329 332 335 335 336 336 334 334 335 335 338
277 278 278 278 280 282 285 291 296 299 293 279 272 276 278 275 270 265 261 261 265 269 270 270 268 269 272 272 269 272 277 278 280 287 289 290 294 297 301 305 307 309 310 308 311 318 321 320 321 321 321 322 325 327 330 332 332 331 334 335 335 336 335 336 339 336 334 338 338 335 336 338 337 334 332 331 330 331 333 334 334 334 334 335 335 335 338
277 278 278 278 278 279 280 283 288 289 284 274 268 271 274 275 271 267 264 262 263 267 269 268 266 266 270 272 273 275 279 281 284 286 285 289 294 295 297 303 307 307 308 309 312 315 316 317 318 318 319 321 324 326 328 329 329 328 331 332 333 335 333 333 335 333 332 335 336 336 340 340 337 336 336 335 334 331 331 333 332 332 334 334 333 335 338
275 276 278 278 278 278 278 278 281 281 277 271 267 267 270 271 269 267 265 262 261 264 265 265 266 268 271 272 274 276 276 277 281 285 285 288 292 292 294 301 303 303 306 308 310 311 313 315 317 319 322 323 323 325 324 325 328 328 328 330 331 331 330 330 332 332 330 333 337 339 339 335 333 337 339 339 338 336 333 332 331 331 331 331 331 334 336
274 274 276 276 277 277 277 276 276 276 274 271 267 266 268 268 266 266 264 261 260 261 261 263 265 266 268 270 272 274 274 275 279 283 286 289 289 289 294 298 298 300 305 307 310 313 313 313 315 319 321 320 321 322 320 323 327 327 326 327 328 329 329 328 329 329 329 334 337 335 331 330 334 338 338 336 338 339 336 334 333 332 330 330 332 334 335
272 273 273 274 275 276 276 275 275 274 273 270 266 266 268 267 266 265 263 260 261 260 260 263 265 263 263 266 269 271 275 278 281 283 285 288 289 290 292 294 295 299 302 305 309 312 312 313 315 317 318 319 321 321 321 323 327 326 324 324 325 326 327 327 327 328 329 330 329 327 327 331 335 336 335 335 336 337 336 334 334 333 332 333 334 334 335
272 272 272 272 273 274 274 274 274 273 272 269 265 265 268 268 266 264 262 261 262 261 260 262 263 261 260 264 267 270 275 279 281 282 284 285 287 289 290 292 295 297 300 304 306 308 310 312 314 315 316 318 318 318 319 322 324 325 324 324 324 323 324 326 326 326 328 329 328 329 331 331 332 331 333 335 336 337 338 334 333 334 336 335 334 333 334
272 271 271 271 272 272 273 273 272 272 272 269 265 264 267 269 267 265 263 262 263 262 263 264 262 260 262 265 268 269 272 275 277 279 282 283 284 286 287 289 292 295 298 301 302 304 307 307 309 311 311 313 314 314 316 318 320 322 323 322 322 322 322 324 323 323 325 327 327 327 327 326 327 329 331 334 335 337 338 334 332 335 336 333 331 331 332
272 272 270 270 270 271 271 272 272 271 271 269 266 264 266 268 268 266 264 263 263 262 265 266 263 261 263 266 268 269 270 272 275 277 280 281 282 284 285 286 289 292 295 298 299 301 303 303 305 307 307 309 311 311 313 315 316 318 320 320 321 321 320 320 320 320 321 323 323 322 322 323 326 329 331 333 334 335 336 333 331 331 332 331 331 330 331
272 272 271 270 270 270 270 271 271 271 271 270 266 264 265 268 268 266 264 264 263 262 264 266 265 263 264 266 267 268 269 272 274 276 278 279 280 281 281 283 287 289 292 296 297 297 299 300 302 303 304 307 309 309 311 313 313 314 317 318 319 319 318 318 319 319 318 319 319 320 321 323 326 329 331 332 332 333 332 329 328 329 330 330 331 330 331
270 271 272 271 270 270 269 270 270 270 270 270 266 263 264 267 268 267 265 263 263 263 264 265 265 264 264 266 268 269 270 271 273 274 277 279 279 279 280 283 286 287 289 293 296 295 296 298 300 302 302 304 306 307 308 309 310 313 316 316 316 317 317 317 318 318 317 317 318 320 321 324 328 330 329 329 329 328 326 325 326 328 328 329 329 330 331
268 269 270 271 271 271 270 269 269 269 269 270 267 262 262 265 267 267 266 264 264 265 264 264 265 265 264 265 266 268 269 270 271 272 275 276 275 277 282 284 283 285 287 290 292 293 294 296 298 300 300 301 303 305 305 306 307 310 312 312 312 313 314 314 315 316 317 319 321 321 321 323 326 328 327 326 324 322 322 323 325 325 326 327 328 329 330
268 268 268 269 269 270 271 270 270 269 269 269 267 262 261 264 265 266 266 265 265 265 265 265 266 266 266 266 266 266 267 268 269 270 273 275 273 274 281 282 279 281 285 286 288 291 292 293 296 297 298 299 301 302 304 306 307 308 310 311 311 311 310 311 312 314 316 316 317 318 318 320 322 322 320 319 317 317 319 321 323 323 324 326 327 328 330
269 268 268 268 268 269 270 270 270 270 269 269 266 262 261 263 264 264 265 265 264 264 264 265 266 266 266 267 267 267 268 268 269 269 271 273 272 272 277 280 279 280 283 284 287 290 291 291 294 295 296 298 299 300 301 303 305 308 310 310 308 306 306 309 310 310 311 311 311 313 315 316 316 314 313 313 314 315 317 318 320 321 323 324 326 327 329
270 269 268 268 268 268 268 269 269 270 270 270 267 263 261 263 264 264 264 263 264 265 264 265 266 266 266 266 266 268 268 268 269 270 270 271 272 272 274 277 278 280 282 283 284 287 288 289 292 294 295 295 297 299 300 299 301 304 306 306 305 304 306 309 310 310 312 310 308 308 310 311 312 312 313 313 314 316 317 317 318 320 322 324 325 326 327
270 270 269 268 268 268 268 269 269 269 269 270 269 265 262 263 264 264 263 262 264 265 264 264 264 265 266 266 266 267 268 268 269 269 270 270 272 273 275 275 277 279 281 281 283 286 287 289 291 293 293 294 296 297 298 298 300 302 303 305 307 307 306 307 308 310 312 311 310 310 310 311 313 314 314 314 315 316 317 316 317 319 321 322 324 325 327
268 269 269 268 268 268 269 269 269 269 269 269 269 266 263 263 264 264 263 262 263 263 264 264 264 264 265 266 266 266 267 268 269 269 269 270 271 273 275 276 277 278 279 281 283 284 285 287 289 290 291 292 293 295 295 297 299 302 303 305 307 307 306 306 306 306 307 308 309 310 309 310 312 313 313 314 316 316 316 316 317 319 320 322 323 325 326
267 267 268 268 268 268 268 269 269 269 269 269 268 266 264 263 264 264 262 262 263 263 262 263 264 264 264 264 265 266 267 267 268 268 269 270 271 272 273 275 277 278 279 281 282 282 283 285 287 288 289 291 292 294 295 296 299 301 301 303 305 305 304 306 307 306 306 307 309 309 310 310 311 312 313 314 316 316 316 316 317 318 320 321 322 323 324
268 266 266 267 267 267 268 269 269 269 270 269 268 266 264 263 264 263 262 262 263 262 261 262 263 264 264 264 266 267 267 267 267 268 269 269 270 271 272 273 275 277 278 280 281 281 282 284 286 286 288 290 292 293 294 296 298 299 299 302 304 303 303 306 308 307 307 309 310 312 313 313 312 313 313 313 314 315 315 315 316 317 318 320 321 322 323
268 267 265 266 266 267 267 268 269 269 270 270 268 266 263 262 263 262 261 261 261 261 261 262 264 265 265 266 266 266 266 267 267 268 269 269 270 270 271 272 273 275 276 277 279 280 281 282 284 286 287 290 291 292 293 295 297 298 299 300 298 297 300 304 305 304 305 306 307 309 310 309 310 312 312 311 312 312 312 313 314 316 318 319 320 322 323
269 268 266 265 265 265 266 267 268 269 270 270 268 265 262 261 262 262 263 262 261 262 263 264 264 265 264 265 265 265 266 266 267 268 269 269 269 270 271 271 272 274 275 276 278 279 280 281 282 284 286 288 290 291 292 294 294 295 296 296 294 294 296 298 299 301 302 303 305 306 306 306 308 309 309 309 309 309 310 311 313 315 317 318 319 321 322
269 268 267 266 265 265 265 266 267 268 269 269 268 264 261 260 260 262 265 266 264 263 263 264 264 264 264 264 265 265 265 266 267 267 268 269 269 270 271 272 273 274 275 276 277 279 281 282 282 284 285 285 287 290 291 292 293 295 295 295 296 296 295 295 297 299 300 301 303 304 304 304 306 307 307 307 307 307 308 311 312 314 315 316 318 320 321
270 269 268 267 266 265 264 264 265 266 267 267 266 263 260 260 261 264 267 268 266 263 263 263 264 264 265 265 265 265 265 266 267 268 268 269 270 271 271 272 273 273 273 275 277 278 280 281 281 283 284 284 285 288 289 291 294 296 296 296 298 298 297 298 298 299 299 301 302 303 303 304 305 305 305 306 306 305 307 309 311 313 314 314 316 318 319
270 269 269 268 266 265 264 264 264 265 265 265 264 262 261 262 264 266 267 267 265 263 263 264 265 265 265 265 265 265 265 266 267 268 269 269 270 271 272 272 273 273 273 275 277 279 279 279 280 283 283 282 283 287 288 289 292 293 293 295 297 298 298 299 300 300 300 300 301 302 303 304 304 303 304 305 305 304 305 308 310 312 312 313 314 315 317
269 269 269 268 267 266 265 265 265 265 264 264 264 264 263 263 265 266 266 265 263 263 262 263 264 265 265 266 266 265 265 267 268 268 269 270 270 271 272 272 273 273 274 274 276 278 279 279 281 282 282 281 282 286 288 287 288 290 291 293 295 297 298 299 299 299 299 298 298 299 300 302 304 304 303 303 303 303 304 306 309 310 311 312 313 314 316
269 268 268 268 267 266 265 266 266 266 265 264 264 264 263 264 264 265 264 263 263 262 261 262 264 266 266 267 268 266 265 267 268 268 269 271 271 271 272 273 273 274 274 274 275 278 279 280 280 281 282 281 282 285 288 288 287 288 291 292 295 297 299 299 299 299 299 299 299 298 299 301 303 304 304 303 303 303 304 305 307 309 310 311 312 313 315
269 268 268 268 267 267 266 266 266 266 266 264 264 264 265 265 264 263 262 262 261 262 261 261 263 266 267 268 270 268 266 267 269 269 269 271 271 271 272 273 274 274 274 274 275 277 278 278 278 280 281 281 281 284 288 289 288 290 292 293 295 298 299 298 299 300 300 300 300 300 300 301 301 302 303 303 304 304 304 305 306 308 309 310 311 313 315
268 267 267 267 267 267 267 266 266 266 266 265 265 266 266 266 264 262 261 260 259 260 261 263 264 264 266 268 270 269 267 268 270 270 270 271 272 271 272 273 274 274 275 275 276 277 277 277 278 279 280 280 281 283 285 286 288 291 293 294 295 297 298 297 298 300 301 301 301 300 299 299 300 301 302 304 305 305 304 305 306 307 308 309 311 313 314
267 266 267 268 268 268 267 266 265 266 266 268 269 268 267 266 265 263 262 261 259 258 260 263 265 265 266 268 270 269 268 269 270 270 270 271 271 271 271 272 274 274 275 275 276 276 276 277 278 279 279 280 281 283 284 286 288 290 291 293 295 296 296 297 299 299 300 301 302 301 299 298 300 302 303 304 305 305 304 304 305 306 307 308 310 312 313
267 266 266 268 268 267 265 265 266 267 268 270 271 269 267 266 265 264 263 262 261 260 260 262 265 266 266 268 269 268 267 269 270 270 270 271 271 272 272 272 272 273 275 276 275 275 276 278 278 279 280 280 281 283 285 287 288 289 289 291 293 294 295 298 300 299 298 299 300 300 299 298 299 301 302 302 304 305 304 304 304 305 306 307 309 311 312
269 267 266 266 267 266 265 266 268 268 269 269 268 267 266 265 265 266 265 263 264 264 263 264 266 266 265 266 268 268 267 268 270 271 270 270 271 272 272 272 272 273 274 275 275 274 276 278 279 280 282 282 283 284 285 286 287 288 289 291 293 293 293 295 297 297 296 296 297 298 297 296 296 298 300 302 303 304 303 303 303 303 304 305 307 309 310
271 268 266 265 265 267 267 268 268 267 267 267 266 265 265 264 264 266 267 267 267 267 265 266 268 268 265 265 266 267 266 266 268 269 270 269 270 271 271 272 272 272 274 275 275 274 276 278 279 280 282 283 285 287 287 286 287 288 290 292 294 294 293 293 294 295 295 295 296 297 296 295 295 297 299 301 303 303 302 301 301 301 301 303 305 307 309
271 269 266 265 266 267 269 269 267 265 265 265 264 264 265 265 265 267 268 269 270 269 269 269 271 271 268 265 265 266 267 267 267 268 269 269 269 270 270 271 272 272 273 275 275 276 277 279 280 280 282 285 288 288 288 288 288 289 291 293 294 293 293 294 295 296 296 296 297 298 297 295 295 296 299 300 301 302 301 300 299 299 299 301 303 306 307
272 270 269 268 267 267 268 268 266 264 263 263 263 263 264 265 266 268 268 268 270 271 272 271 271 271 270 268 267 268 268 268 267 268 268 268 268 269 270 271 272 271 273 275 277 277 277 279 280 281 283 285 286 287 289 290 290 289 291 293 295 294 294 295 296 297 297 297 297 298 297 296 296 297 299 300 301 301 300 298 297 297 298 300 302 304 306
273 271 270 270 269 267 267 266 264 263 263 262 262 262 263 264 266 267 267 267 269 271 272 272 272 272 272 271 269 270 270 268 267 268 268 268 269 269 270 271 271 271 274 277 277 276 276 278 280 282 284 285 285 287 288 289 290 290 293 296 297 296 295 294 295 297 298 298 297 297 296 296 296 298 299 300 300 300 299 297 296 296 297 298 301 303 304
275 273 271 270 269 268 266 264 262 261 261 261 260 261 262 263 264 265 266 267 268 269 271 273 272 272 273 272 270 270 270 269 268 269 269 269 270 270 270 270 271 273 276 277 276 276 278 279 281 284 287 286 285 286 287 288 290 293 295 296 298 298 297 296 297 299 300 300 298 297 296 295 296 297 298 298 298 298 297 297 296 295 296 297 299 301 303
276 274 272 270 268 267 266 265 263 261 262 262 261 261 262 262 263 263 265 266 268 269 271 273 271 270 270 271 270 270 270 270 270 269 269 270 270 270 269 271 274 276 276 276 277 279 280 281 283 287 288 285 284 284 286 288 290 293 294 296 298 299 298 297 297 299 301 301 300 299 297 296 296 296 297 297 296 296 295 295 295 295 295 296 298 300 302
277 275 273 271 269 266 265 265 265 264 263 263 263 262 262 262 263 264 265 267 269 270 271 272 271 269 269 270 270 270 270 270 270 269 269 269 270 270 270 272 274 274 274 275 277 278 280 283 288 289 287 285 285 287 288 289 291 293 295 296 297 298 298 296 296 297 300 301 301 300 299 298 297 296 296 295 295 294 293 293 294 294 294 295 297 299 301
277 275 274 273 271 268 266 267 268 268 266 265 263 262 262 262 263 265 266 267 269 270 271 271 271 269 269 269 270 269 269 269 268 268 268 268 269 270 271 271 271 271 272 273 275 279 283 288 290 289 287 287 288 289 290 291 292 294 295 296 296 298 299 299 298 298 300 301 301 300 300 298 297 296 295 295 295 294 293 293 293 293 294 294 296 298 300
278 276 273 273 273 271 270 270 271 269 268 266 265 264 263 264 265 266 267 267 268 269 270 271 271 270 269 269 269 269 269 268 267 267 267 267 267 268 268 268 269 271 272 273 276 281 286 288 287 286 288 288 288 289 291 292 293 294 295 296 297 298 299 299 299 300 301 301 301 300 300 299 298 296 295 294 294 294 294 294 294 294 294 294 295 297 298
278 276 274 274 275 275 275 275 273 271 269 268 266 265 265 266 267 267 267 267 268 269 270 270 270 269 268 268 267 268 267 266 266 267 267 265 265 265 266 266 267 270 273 277 280 283 285 284 284 285 287 288 288 289 291 292 293 294 295 296 297 298 298 298 299 299 300 300 300 299 298 298 297 296 295 293 293 292 293 294 294 294 294 295 295 296 296
277 277 276 274 275 276 278 277 276 274 273 270 268 267 266 267 267 267 266 267 268 268 269 268 268 268 268 268 268 267 266 265 265 266 265 265 265 266 266 266 267 271 276 280 283 283 282 282 282 284 285 286 288 289 289 290 292 293 294 295 296 296 297 298 298 298 299 299 299 298 297 296 295 294 294 294 293 292 292 292 293 293 294 295 295 295 294
278 278 278 275 273 274 275 276 276 276 274 272 271 270 268 268 268 267 266 266 267 267 267 267 268 268 268 268 267 267 267 266 265 265 264 265 266 266 266 267 270 274 279 281 281 281 282 282 282 283 284 286 286 287 288 289 290 290 291 293 294 295 296 297 297 298 298 298 298 297 296 295 294 294 294 294 293 293 292 291 291 292 293 294 294 294 293
278 280 281 278 275 273 273 273 274 275 275 273 272 272 270 270 269 269 268 267 267 266 266 267 268 268 267 267 267 267 268 267 266 265 265 265 266 266 268 270 274 277 279 279 280 280 281 282 282 283 284 285 285 286 287 288 288 289 290 291 292 293 294 294 294 295 296 296 296 296 295 294 294 294 294 294 294 294 294 293 293 293 292 293 293 293 293